• Join FlightAware (Why Join?)
  • Login
  • US Flag GB Flag 
11:33 EST


 

Airport Tracker/Info


-or-


 

Live Flight TrackerFlight Track Log ✈ DAL268 ✈ 22-May-2013 ✈ KATL - KJFK

Flight Track Log - Related Links

Times and Time Zones

All times are in EDT time to prevent confusion due to time zone crossing. See the DAL268 flight status page for this flight to view local times or setup timezone preferences in your user account.

Time Position Orientation Groundspeed Altitude Reporting Facility
EDT Latitude Longitude Course Direction KTS MPH feet Rate Location/Type
19:20 33.6333 -84.5000 64° Northeast 200 230 2,800  Level Atlanta TRACON
19:21 33.6000 -84.5667 239° Southwest 254 292 4,200 1,980 Climbing Atlanta TRACON
19:22 33.5333 -84.5833 192° South 268 308 6,600 2,340 Climbing Atlanta TRACON
19:23 33.6886 -83.8646 101° East  Level FlightAware Approximate
19:23 33.4667 -84.5667 168° South 298 343 8,700  Level Atlanta TRACON
19:24 33.6653 -83.7253 101° East  Level FlightAware Approximate
19:25 33.6677 -83.5901 64° Northeast  Level FlightAware Approximate
19:25 33.4558 -84.3203 93° East 335 386 11,800  Level Atlanta Center
19:26 33.4831 -84.1908 76° East 390 449 13,600 1,800 Climbing Atlanta Center
19:27 33.5481 -84.0686 57° Northeast 400 460 15,500 1,920 Climbing Atlanta Center
19:28 33.6167 -83.9439 57° Northeast 426 490 17,500 1,800 Climbing Atlanta Center
19:29 33.6856 -83.8167 57° Northeast 438 504 19,100 1,500 Climbing Atlanta Center
19:30 33.7542 -83.6867 58° Northeast 453 521 20,600 1,440 Climbing Atlanta Center
19:31 33.8247 -83.5536 57° Northeast 462 532 22,000 1,320 Climbing Atlanta Center
19:32 33.8969 -83.4156 58° Northeast 473 544 23,300 1,380 Climbing Atlanta Center
19:33 33.9442 -83.2625 70° East 479 551 24,800 1,620 Climbing Atlanta Center
19:34 33.9869 -83.1067 72° East 484 557 26,600 1,560 Climbing Atlanta Center
19:35 34.0294 -82.9608 71° East 479 551 28,000 1,320 Climbing Atlanta Center
19:36 34.0719 -82.8100 71° East 474 545 29,300 1,020 Climbing Atlanta Center
19:37 34.1081 -82.6814 71° East 464 534 30,100 840 Climbing Atlanta Center
19:38 34.1522 -82.5200 72° East 464 534 31,000 420 Climbing Atlanta Center
19:39 34.1942 -82.3686 71° East 464 534 31,000  Level Atlanta Center
19:40 34.2378 -82.2144 71° East 469 540 31,000  Level Atlanta Center
19:41 34.2939 -82.0700 65° Northeast 469 540 31,000  Level Atlanta Center
19:42 34.3625 -81.9300 59° Northeast 474 545 31,000  Level Atlanta Center
19:43 34.4331 -81.7897 59° Northeast 479 551 31,000  Level Atlanta Center
19:44 34.5036 -81.6492 59° Northeast 479 551 31,000  Level Atlanta Center
19:45 34.5739 -81.5086 59° Northeast 479 551 31,000  Level Atlanta Center
19:46 34.6439 -81.3675 59° Northeast 479 551 31,000  Level Atlanta Center
19:47 34.7058 -81.2417 59° Northeast 479 551 31,000  Level Atlanta Center
19:48 34.7756 -81.1003 59° Northeast 479 551 31,000  Level Atlanta Center
19:49 34.8450 -80.9561 60° Northeast 490 564 31,000  Level Atlanta Center
19:50 34.9122 -80.8119 60° Northeast 490 564 31,000  Level Atlanta Center
19:53 35.0758 -80.4697 60° Northeast 473 544 31,000  Level Washington Center
19:54 35.1442 -80.3267 60° Northeast 478 550 31,000  Level Washington Center
19:55 35.2125 -80.1833 60° Northeast 478 550 31,000  Level Washington Center
19:56 35.2914 -80.0275 58° Northeast 478 550 31,000  Level Washington Center
19:57 35.3592 -79.8861 60° Northeast 478 550 31,000  Level Washington Center
19:58 35.4269 -79.7417 60° Northeast 478 550 31,000  Level Washington Center
19:59 35.4944 -79.5972 60° Northeast 478 550 31,000  Level Washington Center
20:00 35.5411 -79.4414 70° East 473 544 31,000  Level Washington Center
20:01 35.5836 -79.2875 71° East 478 550 31,000  Level Washington Center
20:02 35.6261 -79.1286 72° East 478 550 31,000  Level Washington Center
20:03 35.6614 -78.9869 73° East 473 544 31,000  Level Washington Center
20:04 35.7033 -78.8278 72° East 473 544 31,000  Level Washington Center
20:05 35.7472 -78.6683 71° East 478 550 31,000  Level Washington Center
20:06 35.8011 -78.5142 67° East 478 550 31,000  Level Washington Center
20:07 35.8714 -78.3731 58° Northeast 478 550 31,000  Level Washington Center
20:08 35.9372 -78.2292 60° Northeast 478 550 31,000  Level Washington Center
20:09 36.0069 -78.0878 59° Northeast 478 550 31,000  Level Washington Center
20:10 36.0744 -77.9461 59° Northeast 478 550 31,000  Level Washington Center
20:11 36.1419 -77.8039 60° Northeast 478 550 31,000  Level Washington Center
20:12 36.2092 -77.6642 59° Northeast 478 550 31,000  Level Washington Center
20:13 36.2783 -77.5219 59° Northeast 478 550 31,000  Level Washington Center
20:14 36.3575 -77.3972 52° Northeast 470 541 31,000  Level Washington Center
20:15 36.4550 -77.2861 42° Northeast 464 534 31,000  Level Washington Center
20:16 36.5503 -77.1819 41° Northeast 464 534 31,000  Level Washington Center
20:17 36.6519 -77.0728 41° Northeast 459 528 31,000  Level Washington Center
20:18 36.7492 -76.9631 42° Northeast 464 534 31,000  Level Washington Center
20:19 36.8464 -76.8533 42° Northeast 469 540 31,000  Level Washington Center
20:20 36.9453 -76.7431 42° Northeast 469 540 31,000  Level Washington Center
20:21 37.0508 -76.6197 43° Northeast 469 540 31,000  Level Washington Center
20:22 37.1497 -76.5117 41° Northeast 469 540 31,000  Level Washington Center
20:23 37.2464 -76.3981 43° Northeast 474 545 31,000  Level Washington Center
20:24 37.3453 -76.2867 42° Northeast 474 545 31,000  Level Washington Center
20:25 37.4439 -76.1750 42° Northeast 474 545 31,000  Level Washington Center
20:26 37.5319 -76.0789 41° Northeast 474 545 31,000  Level Washington Center
20:27 37.6303 -75.9667 42° Northeast 469 540 31,000  Level Washington Center
20:28 37.7244 -75.8594 42° Northeast 463 533 31,000  Level Washington Center
20:29 37.8186 -75.7494 43° Northeast 463 533 31,000  Level Washington Center
20:30 37.9167 -75.6367 42° Northeast 463 533 31,000  Level Washington Center
20:31 38.0106 -75.5233 44° Northeast 463 533 31,000  Level Washington Center
20:32 38.1189 -75.4333 33° Northeast 463 533 31,000  Level Washington Center
20:33 38.2333 -75.3617 26° Northeast 463 533 31,000  Level Washington Center
20:34 38.3583 -75.2767 28° Northeast 458 527 31,000  Level Washington Center
20:35 38.4728 -75.2019 27° Northeast 458 527 31,000  Level Washington Center
20:36 38.5914 -75.1242 27° Northeast 458 527 31,000  Level Washington Center
20:37 38.7097 -75.0542 25° Northeast 464 534 31,000  Level Washington Center
20:38 38.8242 -74.9789 27° Northeast 464 534 31,000  Level Washington Center
20:39 38.9406 -74.9031 27° Northeast 464 534 31,000  Level Washington Center
20:40 39.0567 -74.8297 26° Northeast 464 534 31,000 -780 Level Washington Center
20:41 39.1622 -74.7322 36° Northeast 464 534 29,500 -1,920 Descending Washington Center
20:42 39.2636 -74.6211 40° Northeast 464 534 27,300 -2,640 Descending Washington Center
20:44 39.5003 -74.3653 40° Northeast 461 531 20,700 -2,520 Descending New York Center
20:45 39.5864 -74.2700 40° Northeast 456 525 19,000 -1,680 Descending New York Center
20:46 39.6919 -74.1567 40° Northeast 450 518 17,300 -2,100 Descending New York Center
20:47 39.7844 -74.0558 40° Northeast 436 502 14,800 -2,520 Descending New York Center
20:48 39.8658 -73.9758 37° Northeast 414 476 12,300 -1,920 Descending New York Center
20:49 39.9594 -73.9069 29° Northeast 399 459 11,000 -720 Descending New York Center
20:50 40.0506 -73.8486 26° Northeast 344 396 10,900 -60 Descending New York Center
20:51 40.1336 -73.8606 354° North 302 348 10,900 60 Level New York Center
20:51 40.1500 -73.8667 344° North 277 319 11,000 -780 Climbing New York TRACON
20:52 40.2333 -73.8833 351° North 260 299 9,900 -1,200 Descending New York TRACON
20:53 40.2653 -73.8472 41° Northeast 244 281 9,000 -840 Descending New York Center
20:53 40.2667 -73.8167 87° East 265 305 9,100 -480 Climbing New York TRACON
20:54 40.2333 -73.7500 123° Southeast 237 273 8,400 -540 Descending New York TRACON
20:55 40.2500 -73.6667 75° East 259 298 8,100 -360 Descending New York TRACON
20:56 40.3167 -73.6500 11° North 254 292 7,700 -660 Descending New York TRACON
20:57 40.3669 -73.6231 22° Northeast 226 260 7,000 -600 Descending New York Center
20:57 40.3833 -73.6167 17° North 253 291 7,100 60 Climbing New York TRACON
20:58 40.4500 -73.5833 21° North 252 290 7,100  Level New York TRACON
20:59 40.5167 -73.5500 21° North 254 292 7,100 -600 Level New York TRACON
21:00 40.5833 -73.5167 21° North 252 290 6,000 -1,260 Descending New York TRACON
21:01 40.6333 -73.4500 45° Northeast 249 287 4,600 -960 Descending New York TRACON
21:02 40.7000 -73.4000 30° Northeast 239 275 4,100 -420 Descending New York TRACON
21:03 40.7500 -73.3667 27° Northeast 221 254 3,800 -540 Descending New York TRACON
21:04 40.8000 -73.3667 360° North 204 235 3,100 -360 Descending New York TRACON
21:05 40.8500 -73.3833 346° North 207 238 3,100  Level New York TRACON
21:06 40.8833 -73.4333 311° West 179 206 3,100  Level New York TRACON
21:07 40.8667 -73.4833 246° West 169 194 3,100  Level New York TRACON
21:08 40.8500 -73.5500 252° West 167 192 3,100  Level New York TRACON
21:09 40.8333 -73.6000 246° West 167 192 3,100  Level New York TRACON
21:10 40.8000 -73.6333 217° Southwest 171 197 3,100  Level New York TRACON